Alijar, Spain

5:11 AM CET on February 20, 2017 (GMT +0100)
Rota Navy

Weather History for LERT - December, 2013

Change the Weather History Date:

Tuesday, December 3, 2013

  Actual Average Record
Temperature  
Mean Temperature 52 °F -  
Max Temperature 64 °F 57 °F 71 °F (2015)
Min Temperature 39 °F 46 °F 37 °F (2003)
Degree Days  
Heating Degree Days 14    
Growing Degree Days 2 (Base 50)    
Moisture  
Dew Point 40 °F    
Average Humidity 63    
Maximum Humidity 81    
Minimum Humidity 45    
Precipitation  
Precipitation 0.00 in - - ()
Sea Level Pressure  
Sea Level Pressure 30.16 in    
Wind  
Wind Speed 8 mph ()    
Max Wind Speed 16 mph    
Max Gust Speed 28 mph    
Visibility 6.2 miles    
Events      
Averages and records for this station are not official NWS values.
T = Trace of Precipitation, MM = Missing Value Source: Averaged Metar Reports

Daily Weather History Graph

Daily Weather History Graph

Search for Another Location

Airport or City:

Trip Planner

Search our weather history database for the weather conditions in past years. The results will help you decide how hot, cold, wet, or windy it might be!

Date:

Astronomy

Dec. 03, 2013 Rise Set
Actual Time 8:20 AM CET 6:09 PM CET
Civil Twilight 7:52 AM CET 6:37 PM CET
Nautical Twilight 7:20 AM CET 7:10 PM CET
Astronomical Twilight 6:49 AM CET 7:41 PM CET
Moon 8:36 AM CET (12/3) 6:57 PM CET (12/3)
Length of Visible Light 10h 45m
Length of Day
9h 48m
New Moon, 0% of the Moon is Illuminated
Dec 3
New Moon
Dec 9
First Quarter
Dec 17
Full
Dec 25
Last Quarter
Jan 1
New

Hourly Weather History & Observations

Time (CET) Temp. Windchill Dew Point Humidity Pressure Visibility Wind Dir Wind Speed Gust Speed Precip Events Conditions
12:00 AM 48.2 °F - 37.4 °F 66% 30.12 in - ENE 4.6 mph - N/A   Clear
1:00 AM 48.2 °F - 37.4 °F 66% 30.12 in - East 8.1 mph - N/A   Clear
2:00 AM 48.2 °F - 37.4 °F 66% 30.12 in - Variable 2.3 mph - N/A   Clear
3:00 AM 44.6 °F 40.2 °F 33.8 °F 66% 30.12 in - NNE 8.1 mph - N/A   Clear
4:00 AM 42.8 °F 36.6 °F 33.8 °F 70% 30.12 in - NNE 11.5 mph - N/A   Clear
5:00 AM 41.0 °F 34.7 °F 33.8 °F 76% 30.15 in - NNE 10.4 mph - N/A   Clear
6:00 AM 41.0 °F 34.7 °F 33.8 °F 76% 30.12 in - NNE 10.4 mph - N/A   Clear
7:00 AM 42.8 °F 39.3 °F 33.8 °F 70% 30.15 in - NE 5.8 mph - N/A   Clear
8:00 AM 39.2 °F - 33.8 °F 81% 30.15 in - Variable 2.3 mph - N/A   Clear
9:00 AM 39.2 °F 33.6 °F 33.8 °F 81% 30.15 in - NNE 8.1 mph - N/A   Clear
10:00 AM 44.6 °F 39.7 °F 35.6 °F 71% 30.18 in - NNE 9.2 mph - N/A   Clear
11:00 AM 50.0 °F - 37.4 °F 62% 30.21 in - NNE 6.9 mph - N/A   Clear
12:00 PM 59.0 °F - 39.2 °F 48% 30.18 in - ENE 5.8 mph - N/A   Clear
1:00 PM 64.4 °F - 42.8 °F 45% 30.18 in 6.2 mi ENE 9.2 mph - N/A   Partly Cloudy
2:00 PM 64.4 °F - 44.6 °F 49% 30.15 in 6.2 mi ESE 16.1 mph - N/A   Partly Cloudy
3:00 PM 64.4 °F - 44.6 °F 49% 30.15 in 6.2 mi ESE 16.1 mph - N/A   Partly Cloudy
4:00 PM 64.4 °F - 42.8 °F 45% 30.15 in 6.2 mi ESE 16.1 mph 27.6 mph N/A   Partly Cloudy
5:00 PM 62.6 °F - 46.4 °F 55% 30.15 in 6.2 mi ESE 16.1 mph - N/A   Partly Cloudy
6:00 PM 60.8 °F - 44.6 °F 55% 30.18 in 6.2 mi ESE 13.8 mph - N/A   Partly Cloudy
7:00 PM 59.0 °F - 44.6 °F 59% 30.18 in - ESE 15.0 mph - N/A   Clear
8:00 PM 57.2 °F - 44.6 °F 63% 30.18 in - ESE 15.0 mph - N/A   Clear
9:00 PM 57.2 °F - 44.6 °F 63% 30.21 in - ESE 13.8 mph - N/A   Clear
10:00 PM 55.4 °F - 44.6 °F 67% 30.21 in - ESE 10.4 mph - N/A   Clear
11:00 PM 55.4 °F - 44.6 °F 67% 30.21 in - East 11.5 mph - N/A   Clear